Location: Menands
(42.6920°N, 73.7246°W)
Time: 02:17:39
(UTC+00:00)

Cosmos 1782 - Pass Details

Date: 18 February 2026
Orbit: 463 x 470 km, 82.5° (Epoch: 5 March)

Event Time Altitude Azimuth Distance (km) Brightness Sun altitude
Rises 23:18:49 0° 356° (N) 2,527 6.2 -9.5°
Reaches altitude 10° 23:20:58 10° 1° (N) 1,644 5.2 -9.9°
Maximum altitude 23:24:29 53° 79° (E) 586 2.6 -10.5°
Drops below altitude 10° 23:27:58 10° 158° (SSE) 1,625 5.1 -11.2°
Sets 23:30:04 0° 163° (SSE) 2,495 6.1 -11.6°
